Regional Weather Roundup
Issued by NWS Charleston, SC

Current Version | Previous Version | Graphics & Text | Print | Product List | Glossary On
Versions: 1 2 3 4 5 6 7 8 9 10 11 12 13 14 15 16 17 18 19 20 21 22 23 24 25 26 27 28 29 30 31 32 33 34 35 36 37 38 39 40 41 42 43 44 45 46 47 48 49 50
000
ASUS42 KCHS 270112
RWRCHS

REGIONAL WEATHER ROUNDUP
NATIONAL WEATHER SERVICE CHARLESTON SC
900 PM EDT TUE MAY 26 2015

NOTE: "FAIR" INDICATES FEW OR NO CLOUDS BELOW 12,000 FEET WITH NO
SIGNIFICANT WEATHER AND/OR OBSTRUCTIONS TO VISIBILITY.

NOT ALL STATIONS ARE QUALITY CONTROLLED BY THE NATIONAL
WEATHER SERVICE. USE DATA WITH CAUTION...ESPECIALLY
DEWPOINT OBSERVATIONS.

SCZ027-030-031-034>040-042>050-270200-
...SOUTHEAST SOUTH CAROLINA...

CITY           SKY/WX    TMP DP  RH WIND       PRES   REMARKS
N CHARLESTON   MOCLDY    78  71  79 S14       30.22S
WATERFRONT PAR   N/A     78  74  87 S8        30.19F
MOUNT PLEASANT FAIR      75  73  94 SE6       30.22F
JOHNS ISLAND   CLOUDY    77  73  88 S10       30.22F
PINOPOLIS        N/A     81  72  74 SE5       30.14F
MONCKS CORNER  FAIR      77  72  83 SE3       30.21S
SUMMERVILLE    FAIR      77  70  78 CALM      30.22S
BEAUFORT MCAS  PTCLDY    78  72  81 S7        30.22R
BEAUFORT ARPT  FAIR      77  73  88 S7        30.22R
HILTON HEAD IS PTCLDY    77  73  88 SE9       30.24R
WALTERBORO     MOCLDY    75  68  78 S6        30.22R
ALLENDALE      FAIR      79  70  73 S7        30.21R

...SOUTHERN MIDLANDS AND PEE DEE...

CITY           SKY/WX    TMP DP  RH WIND       PRES   REMARKS
GEORGETOWN     NOT AVBL
KINGSTREE      NOT AVBL
ORANGEBURG     CLOUDY    78  67  68 S8        30.21R
BARNWELL       MOCLDY    81  70  69 SE8       30.21R
AIKEN          CLOUDY    72  66  83 W5        30.25R THUNDER
MANNING        FAIR      77  59  53 S3        30.21R
COLUMBIA       CLOUDY    74  65  73 W5        30.19R
SUMTER         MOCLDY    80  67  64 S8        30.18R
FLORENCE       MOCLDY    78  69  73 SE12      30.19F
MYRTLE BEACH   NOT AVBL
N MYRTLE BEACH CLOUDY    76  68  76 S15       30.23F

$$

GAZ063-065-086>088-099>101-113>116-118-119-134>141-150-270200-
...SOUTHEAST GEORGIA...

CITY           SKY/WX    TMP DP  RH WIND       PRES   REMARKS
SAVANNAH ARPT  CLOUDY    78  70  76 SE10      30.22R
HUNTER AAF     MOCLDY    78  73  86 SE8       30.20R
FORT STEWART   MOCLDY    77  70  78 S5        30.22R
STATESBORO     CLOUDY    78  73  84 SE6       30.22R
SYLVANIA       CLOUDY    80  72  78 S5        30.23R
CLAXTON        FAIR      79  72  78 CALM      30.22R

...CSRA...CENTRAL AND FAR SOUTHEAST GEORGIA...

CITY           SKY/WX    TMP DP  RH WIND       PRES   REMARKS
THOMSON        CLOUDY    71  69  94 W6        30.27R
AUGUSTA-BUSH   RAIN      71  67  87 NW8       30.24R
AUGUSTA-DANIEL TSTM      71  66  84 NW9       30.25R
SWAINSBORO     RAIN     N/A N/A N/A W10       30.27R
VIDALIA        TSTM      70  68  94 W7        30.25R
EASTMAN        TSTM      71  71 100 E5        30.25F
HAZLEHURST     CLOUDY    70  70 100 CALM      30.26R
ALMA           TSTM      69  68  96 CALM      30.26R FOG
WAYCROSS       RAIN      71  71  98 CALM      30.24R
JESUP          MOCLDY    81  72  74 S3        30.25R
BAXLEY         TSTM      70  70 100 SW5       30.26R
BRUNSWICK      MOCLDY    79  70  73 SE8       30.23R
SAINT SIMONS   NOT AVBL

$$

SCZ027-028-034-036>038-045-046-048>050-GAZ119-141-270200-
...LAKE AND SUPPLEMENTAL COASTAL OBSERVATIONS...

STATION/POSITION TIME  TEMP    WIND        PRES    WAVE   SWELL
                       AIR SEA DIR/SP/G            HT/PER HT/PER/DIR
                 (UTC) (F)     (DEG/KT/KT) (MB)    (FT/S) (FT/S/D)
UPR LAKE MARION  NOT AVBL
WINYAH BAY       NOT AVBL
LAKE MURRAY      0000   72      CALM  /  3 1021.3R
ACE BASIN NERRS  NOT AVBL
FORT PULASKI     0000   78 79  120/  8/ 11 1023.6S
SAPELO ISLAND    0000   79     140/  6     1023.0R

$$

ANZ835-935-AMZ111-154-330-350-352-354-370-450-454-472-270200-
...C-MAN AND BUOY OBSERVATIONS...

STATION/POSITION TIME  TEMP    WIND        PRES    WAVE   SWELL
                       AIR SEA DIR/SP/G            HT/PER HT/PER/DIR
                 (UTC) (F)     (DEG/KT/KT) (MB)    (FT/S) (FT/S/D)
BUOY 41004       0050   78 76  160/ 14/ 16 1023.5S   4/ 7   2/ 7
BUOY 41008       0050   78 78  150/ 12/ 14 1023.9R   2/ 7   2/100/ 7
FOLLY BEACH CMAN 0100   78     170/ 13/ 15 1023.6F
CAPERS NEARSHORE 0008   76     140/ 10/ 14 1024.0R
FRIPP NEARSHORE  0000   78     160/ 12/ 12 1023.1R


STATION/POSITION TIME  TEMP    WIND        PRES    WAVE   SWELL
                       AIR SEA DIR/SP/G            HT/PER HT/PER/DIR
                 (UTC) (F)     (DEG/KT/KT) (MB)    (FT/S) (FT/S/D)
5E ST. MARYS GA  0021      79                N/A     3/ 4
FRYING PAN BUOY  0050   77 75  160/ 12/ 14 1025.4R   4/ 7   3/120/ 7
BUOY 41025       0050   74 77  160/ 17/ 21 1025.0S   3/ 6   2/ 70/12
CAPE LOOKOUT NC  0100   74     180/ 14/ 15 1025.1R
BUOY 41002       0050   74 74  120/ 14/ 17 1025.5F   4/ 6   2/130/ 8
BUOY 41010       0020   78 81  100/ 14/ 16 1022.8R
ST AUGUSTINE FL  0100   78 81  130/ 15/ 17 1023.5R


$$



USA.gov is the U.S. government's official web portal to all federal, state and local government web resources and services.